Time,TemperatureF,DewpointF,PressureIn,WindDirection,WindDirectionDegrees,WindSpeedMPH,WindSpeedGustMPH,Humidity,HourlyPrecipIn,Conditions,Clouds,dailyrainin,SoftwareType,DateUTC
2013-07-05 00:00:00,62.0,-99.9,-100.00,SW,233,8.0,10.0,-999,-99.99,,,-99.99,,2013-07-05 06:00:00,
2013-07-05 00:23:00,62.0,-99.9,-100.00,SW,233,8.0,10.0,-999,-99.99,,,-99.99,,2013-07-05 06:23:00,
2013-07-05 00:34:00,62.0,-99.9,-100.00,SW,233,8.0,10.0,-999,-99.99,,,-99.99,,2013-07-05 06:34:00,
2013-07-05 00:44:00,62.0,-99.9,-100.00,SW,233,8.0,10.0,-999,-99.99,,,-99.99,,2013-07-05 06:44:00,
2013-07-05 00:53:00,62.0,-99.9,-100.00,SW,233,8.0,10.0,-999,-99.99,,,-99.99,,2013-07-05 06:53:00,
2013-07-05 01:00:00,62.0,-99.9,-100.00,SSW,208,8.0,11.0,-999,-99.99,,,-99.99,,2013-07-05 07:00:00,
2013-07-05 01:23:00,62.0,-99.9,-100.00,SSW,208,8.0,11.0,-999,-99.99,,,-99.99,,2013-07-05 07:23:00,
2013-07-05 01:34:00,62.0,-99.9,-100.00,SSW,208,8.0,11.0,-999,-99.99,,,-99.99,,2013-07-05 07:34:00,
2013-07-05 01:43:00,62.0,-99.9,-100.00,SSW,208,8.0,11.0,-999,-99.99,,,-99.99,,2013-07-05 07:43:00,
2013-07-05 01:53:00,62.0,-99.9,-100.00,SSW,208,8.0,11.0,-999,-99.99,,,-99.99,,2013-07-05 07:53:00,
2013-07-05 02:00:00,61.0,-99.9,-100.00,West,260,2.0,4.0,-999,-99.99,,,-99.99,,2013-07-05 08:00:00,
2013-07-05 02:23:00,61.0,-99.9,-100.00,West,260,2.0,4.0,-999,-99.99,,,-99.99,,2013-07-05 08:23:00,
2013-07-05 02:33:00,61.0,-99.9,-100.00,West,260,2.0,4.0,-999,-99.99,,,-99.99,,2013-07-05 08:33:00,
2013-07-05 02:44:00,61.0,-99.9,-100.00,West,260,2.0,4.0,-999,-99.99,,,-99.99,,2013-07-05 08:44:00,
2013-07-05 02:58:00,61.0,-99.9,-100.00,West,260,2.0,4.0,-999,-99.99,,,-99.99,,2013-07-05 08:58:00,
2013-07-05 03:00:00,61.0,-99.9,-100.00,South,178,2.0,3.0,-999,-99.99,,,-99.99,,2013-07-05 09:00:00,
2013-07-05 03:38:00,61.0,-99.9,-100.00,South,178,2.0,3.0,-999,-99.99,,,-99.99,,2013-07-05 09:38:00,
2013-07-05 03:49:00,61.0,-99.9,-100.00,South,178,2.0,3.0,-999,-99.99,,,-99.99,,2013-07-05 09:49:00,
2013-07-05 03:58:00,61.0,-99.9,-100.00,South,178,2.0,3.0,-999,-99.99,,,-99.99,,2013-07-05 09:58:00,
2013-07-05 04:00:00,61.0,-99.9,-100.00,SSE,166,4.0,5.0,-999,-99.99,,,-99.99,,2013-07-05 10:00:00,
2013-07-05 04:39:00,61.0,-99.9,-100.00,SSE,166,4.0,5.0,-999,-99.99,,,-99.99,,2013-07-05 10:39:00,
2013-07-05 04:48:00,61.0,-99.9,-100.00,SSE,166,4.0,5.0,-999,-99.99,,,-99.99,,2013-07-05 10:48:00,
2013-07-05 04:58:00,61.0,-99.9,-100.00,SSE,166,4.0,5.0,-999,-99.99,,,-99.99,,2013-07-05 10:58:00,
2013-07-05 05:00:00,62.0,-99.9,-100.00,SW,232,1.0,2.0,-999,-99.99,,,-99.99,,2013-07-05 11:00:00,
2013-07-05 05:25:00,62.0,-99.9,-100.00,SW,232,1.0,2.0,-999,-99.99,,,-99.99,,2013-07-05 11:25:00,
2013-07-05 05:39:00,62.0,-99.9,-100.00,SW,232,1.0,2.0,-999,-99.99,,,-99.99,,2013-07-05 11:39:00,
2013-07-05 05:52:00,62.0,-99.9,-100.00,SW,232,1.0,2.0,-999,-99.99,,,-99.99,,2013-07-05 11:52:00,
2013-07-05 06:00:00,63.0,-99.9,-100.00,South,185,4.0,4.0,-999,-99.99,,,-99.99,,2013-07-05 12:00:00,
2013-07-05 06:39:00,63.0,-99.9,-100.00,South,185,4.0,4.0,-999,-99.99,,,-99.99,,2013-07-05 12:39:00,
2013-07-05 06:52:00,63.0,-99.9,-100.00,South,185,4.0,4.0,-999,-99.99,,,-99.99,,2013-07-05 12:52:00,
2013-07-05 07:00:00,63.0,-99.9,-100.00,SW,219,1.0,3.0,-999,-99.99,,,-99.99,,2013-07-05 13:00:00,
2013-07-05 07:26:00,63.0,-99.9,-100.00,SW,219,1.0,3.0,-999,-99.99,,,-99.99,,2013-07-05 13:26:00,
2013-07-05 07:40:00,63.0,-99.9,-100.00,SW,219,1.0,3.0,-999,-99.99,,,-99.99,,2013-07-05 13:40:00,
2013-07-05 07:51:00,63.0,-99.9,-100.00,SW,219,1.0,3.0,-999,-99.99,,,-99.99,,2013-07-05 13:51:00,
2013-07-05 07:59:00,63.0,-99.9,-100.00,SW,219,1.0,3.0,-999,-99.99,,,-99.99,,2013-07-05 13:59:00,
2013-07-05 08:00:00,63.0,-99.9,-100.00,NNW,345,7.0,8.0,-999,-99.99,,,-99.99,,2013-07-05 14:00:00,
2013-07-05 08:29:00,63.0,-99.9,-100.00,NNW,345,7.0,8.0,-999,-99.99,,,-99.99,,2013-07-05 14:29:00,
2013-07-05 08:40:00,63.0,-99.9,-100.00,NNW,345,7.0,8.0,-999,-99.99,,,-99.99,,2013-07-05 14:40:00,
2013-07-05 08:48:00,63.0,-99.9,-100.00,NNW,345,7.0,8.0,-999,-99.99,,,-99.99,,2013-07-05 14:48:00,
2013-07-05 08:58:00,63.0,-99.9,-100.00,NNW,345,7.0,8.0,-999,-99.99,,,-99.99,,2013-07-05 14:58:00,
2013-07-05 09:00:00,65.0,-99.9,-100.00,NNE,21,8.0,10.0,-999,-99.99,,,-99.99,,2013-07-05 15:00:00,
2013-07-05 09:26:00,65.0,-99.9,-100.00,NNE,21,8.0,10.0,-999,-99.99,,,-99.99,,2013-07-05 15:26:00,
2013-07-05 09:34:00,65.0,-99.9,-100.00,NNE,21,8.0,10.0,-999,-99.99,,,-99.99,,2013-07-05 15:34:00,
2013-07-05 09:43:00,65.0,-99.9,-100.00,NNE,21,8.0,10.0,-999,-99.99,,,-99.99,,2013-07-05 15:43:00,
2013-07-05 10:00:00,71.0,-99.9,-100.00,NNE,30,12.0,17.0,-999,-99.99,,,-99.99,,2013-07-05 16:00:00,
2013-07-05 10:33:00,71.0,-99.9,-100.00,NNE,30,12.0,17.0,-999,-99.99,,,-99.99,,2013-07-05 16:33:00,
2013-07-05 10:44:00,71.0,-99.9,-100.00,NNE,30,12.0,17.0,-999,-99.99,,,-99.99,,2013-07-05 16:44:00,
2013-07-05 10:54:00,71.0,-99.9,-100.00,NNE,30,12.0,17.0,-999,-99.99,,,-99.99,,2013-07-05 16:54:00,
2013-07-05 11:00:00,72.0,-99.9,-100.00,NE,55,7.0,10.0,-999,-99.99,,,-99.99,,2013-07-05 17:00:00,
2013-07-05 11:22:00,72.0,-99.9,-100.00,NE,55,7.0,10.0,-999,-99.99,,,-99.99,,2013-07-05 17:22:00,
2013-07-05 11:33:00,72.0,-99.9,-100.00,NE,55,7.0,10.0,-999,-99.99,,,-99.99,,2013-07-05 17:33:00,
2013-07-05 11:43:00,72.0,-99.9,-100.00,NE,55,7.0,10.0,-999,-99.99,,,-99.99,,2013-07-05 17:43:00,
2013-07-05 11:53:00,72.0,-99.9,-100.00,NE,55,7.0,10.0,-999,-99.99,,,-99.99,,2013-07-05 17:53:00,
2013-07-05 12:00:00,75.0,-99.9,-100.00,North,2,4.0,7.0,-999,-99.99,,,-99.99,,2013-07-05 18:00:00,
2013-07-05 12:22:00,75.0,-99.9,-100.00,North,2,4.0,7.0,-999,-99.99,,,-99.99,,2013-07-05 18:22:00,
2013-07-05 12:33:00,75.0,-99.9,-100.00,North,2,4.0,7.0,-999,-99.99,,,-99.99,,2013-07-05 18:33:00,
2013-07-05 12:43:00,75.0,-99.9,-100.00,North,2,4.0,7.0,-999,-99.99,,,-99.99,,2013-07-05 18:43:00,
2013-07-05 12:53:00,75.0,-99.9,-100.00,North,2,4.0,7.0,-999,-99.99,,,-99.99,,2013-07-05 18:53:00,
2013-07-05 13:00:00,77.0,-99.9,-100.00,ENE,67,9.0,11.0,-999,-99.99,,,-99.99,,2013-07-05 19:00:00,
2013-07-05 13:34:00,77.0,-99.9,-100.00,ENE,67,9.0,11.0,-999,-99.99,,,-99.99,,2013-07-05 19:34:00,
2013-07-05 13:43:00,77.0,-99.9,-100.00,ENE,67,9.0,11.0,-999,-99.99,,,-99.99,,2013-07-05 19:43:00,
2013-07-05 13:53:00,77.0,-99.9,-100.00,ENE,67,9.0,11.0,-999,-99.99,,,-99.99,,2013-07-05 19:53:00,
2013-07-05 14:00:00,69.0,-99.9,-100.00,NE,46,14.0,18.0,-999,-99.99,,,-99.99,,2013-07-05 20:00:00,
2013-07-05 14:23:00,69.0,-99.9,-100.00,NE,46,14.0,18.0,-999,-99.99,,,-99.99,,2013-07-05 20:23:00,
2013-07-05 14:33:00,69.0,-99.9,-100.00,NE,46,14.0,18.0,-999,-99.99,,,-99.99,,2013-07-05 20:33:00,
2013-07-05 14:43:00,69.0,-99.9,-100.00,NE,46,14.0,18.0,-999,-99.99,,,-99.99,,2013-07-05 20:43:00,
2013-07-05 14:53:00,69.0,-99.9,-100.00,NE,46,14.0,18.0,-999,-99.99,,,-99.99,,2013-07-05 20:53:00,
2013-07-05 15:00:00,67.0,-99.9,-100.00,NW,317,2.0,4.0,-999,-99.99,,,-99.99,,2013-07-05 21:00:00,
2013-07-05 15:34:00,67.0,-99.9,-100.00,NW,317,2.0,4.0,-999,-99.99,,,-99.99,,2013-07-05 21:34:00,
2013-07-05 15:43:00,67.0,-99.9,-100.00,NW,317,2.0,4.0,-999,-99.99,,,-99.99,,2013-07-05 21:43:00,
2013-07-05 15:53:00,67.0,-99.9,-100.00,NW,317,2.0,4.0,-999,-99.99,,,-99.99,,2013-07-05 21:53:00,
2013-07-05 16:00:00,68.0,-99.9,-100.00,SE,127,8.0,11.0,-999,-99.99,,,-99.99,,2013-07-05 22:00:00,
2013-07-05 16:34:00,68.0,-99.9,-100.00,SE,127,8.0,11.0,-999,-99.99,,,-99.99,,2013-07-05 22:34:00,
2013-07-05 16:43:00,68.0,-99.9,-100.00,SE,127,8.0,11.0,-999,-99.99,,,-99.99,,2013-07-05 22:43:00,
2013-07-05 16:53:00,68.0,-99.9,-100.00,SE,127,8.0,11.0,-999,-99.99,,,-99.99,,2013-07-05 22:53:00,
2013-07-05 17:00:00,74.0,-99.9,-100.00,SSW,206,8.0,9.0,-999,-99.99,,,-99.99,,2013-07-05 23:00:00,
2013-07-05 17:32:00,74.0,-99.9,-100.00,SSW,206,8.0,9.0,-999,-99.99,,,-99.99,,2013-07-05 23:32:00,
2013-07-05 17:43:00,74.0,-99.9,-100.00,SSW,206,8.0,9.0,-999,-99.99,,,-99.99,,2013-07-05 23:43:00,
2013-07-05 17:53:00,74.0,-99.9,-100.00,SSW,206,8.0,9.0,-999,-99.99,,,-99.99,,2013-07-05 23:53:00,
2013-07-05 18:00:00,76.0,-99.9,-100.00,NW,322,8.0,10.0,-999,-99.99,,,-99.99,,2013-07-06 00:00:00,
2013-07-05 18:33:00,76.0,-99.9,-100.00,NW,322,8.0,10.0,-999,-99.99,,,-99.99,,2013-07-06 00:33:00,
2013-07-05 18:43:00,76.0,-99.9,-100.00,NW,322,8.0,10.0,-999,-99.99,,,-99.99,,2013-07-06 00:43:00,
2013-07-05 18:53:00,76.0,-99.9,-100.00,NW,322,8.0,10.0,-999,-99.99,,,-99.99,,2013-07-06 00:53:00,
2013-07-05 19:00:00,73.0,-99.9,-100.00,North,358,3.0,5.0,-999,-99.99,,,-99.99,,2013-07-06 01:00:00,
2013-07-05 19:22:00,73.0,-99.9,-100.00,North,358,3.0,5.0,-999,-99.99,,,-99.99,,2013-07-06 01:22:00,
2013-07-05 19:33:00,73.0,-99.9,-100.00,North,358,3.0,5.0,-999,-99.99,,,-99.99,,2013-07-06 01:33:00,
2013-07-05 19:43:00,73.0,-99.9,-100.00,North,358,3.0,5.0,-999,-99.99,,,-99.99,,2013-07-06 01:43:00,
2013-07-05 19:53:00,73.0,-99.9,-100.00,North,358,3.0,5.0,-999,-99.99,,,-99.99,,2013-07-06 01:53:00,
2013-07-05 20:00:00,76.0,-99.9,-100.00,West,270,16.0,21.0,-999,-99.99,,,-99.99,,2013-07-06 02:00:00,
2013-07-05 20:22:00,76.0,-99.9,-100.00,West,270,16.0,21.0,-999,-99.99,,,-99.99,,2013-07-06 02:22:00,
2013-07-05 20:34:00,76.0,-99.9,-100.00,West,270,16.0,21.0,-999,-99.99,,,-99.99,,2013-07-06 02:34:00,
2013-07-05 20:43:00,76.0,-99.9,-100.00,West,270,16.0,21.0,-999,-99.99,,,-99.99,,2013-07-06 02:43:00,
2013-07-05 20:53:00,76.0,-99.9,-100.00,West,270,16.0,21.0,-999,-99.99,,,-99.99,,2013-07-06 02:53:00,
2013-07-05 21:00:00,70.0,-99.9,-100.00,SSW,212,8.0,10.0,-999,-99.99,,,-99.99,,2013-07-06 03:00:00,
2013-07-05 21:22:00,70.0,-99.9,-100.00,SSW,212,8.0,10.0,-999,-99.99,,,-99.99,,2013-07-06 03:22:00,
2013-07-05 21:34:00,70.0,-99.9,-100.00,SSW,212,8.0,10.0,-999,-99.99,,,-99.99,,2013-07-06 03:34:00,
2013-07-05 21:43:00,70.0,-99.9,-100.00,SSW,212,8.0,10.0,-999,-99.99,,,-99.99,,2013-07-06 03:43:00,
2013-07-05 21:53:00,70.0,-99.9,-100.00,SSW,212,8.0,10.0,-999,-99.99,,,-99.99,,2013-07-06 03:53:00,
2013-07-05 22:00:00,70.0,-99.9,-100.00,West,270,15.0,20.0,-999,-99.99,,,-99.99,,2013-07-06 04:00:00,
2013-07-05 22:22:00,70.0,-99.9,-100.00,West,270,15.0,20.0,-999,-99.99,,,-99.99,,2013-07-06 04:22:00,
2013-07-05 22:33:00,70.0,-99.9,-100.00,West,270,15.0,20.0,-999,-99.99,,,-99.99,,2013-07-06 04:33:00,
2013-07-05 22:43:00,70.0,-99.9,-100.00,West,270,15.0,20.0,-999,-99.99,,,-99.99,,2013-07-06 04:43:00,
2013-07-05 22:53:00,70.0,-99.9,-100.00,West,270,15.0,20.0,-999,-99.99,,,-99.99,,2013-07-06 04:53:00,
2013-07-05 23:00:00,69.0,-99.9,-100.00,West,270,20.0,26.0,-999,-99.99,,,-99.99,,2013-07-06 05:00:00,
2013-07-05 23:22:00,69.0,-99.9,-100.00,West,270,20.0,26.0,-999,-99.99,,,-99.99,,2013-07-06 05:22:00,
2013-07-05 23:34:00,69.0,-99.9,-100.00,West,270,20.0,26.0,-999,-99.99,,,-99.99,,2013-07-06 05:34:00,
2013-07-05 23:43:00,69.0,-99.9,-100.00,West,270,20.0,26.0,-999,-99.99,,,-99.99,,2013-07-06 05:43:00,
2013-07-05 23:53:00,69.0,-99.9,-100.00,West,270,20.0,26.0,-999,-99.99,,,-99.99,,2013-07-06 05:53:00,